Location: Springfield
(37.2150°N, 93.2980°W)
Time: 15:20:23
(UTC-06:00)

Daily predictions for brighter satellites

Satellite Brightness Start Highest point End
(mag) Time Altitude Azimuth Time Altitude Azimuth Time Altitude Azimuth
Cosmos 1420 Rocket 4.0 18:17:13 10° NNW 18:22:30 66° ENE 18:27:46 10° SSE
Centaur D-1A AC-32 4.3 18:20:06 10° SW 18:23:56 32° SSE 18:34:30 10° E
SeaSat 1 4.4 18:24:53 10° NE 18:25:13 10° NE 18:25:33 10° NE
SPOT 3 Rocket 3.8 18:21:14 10° SE 18:26:11 48° ENE 18:31:12 10° N
Cosmos 1378 Rocket 3.6 18:28:42 10° N 18:33:04 57° E 18:37:25 10° SSE
USA 215 4.2 18:29:25 10° ENE 18:34:48 27° SE 18:40:08 10° S
ERS-2 3.2 18:35:24 10° SE 18:38:28 26° ENE 18:41:34 10° NNE
Gbstr 26 Del rocket 2.6 18:35:44 10° SW 18:39:28 86° NW 18:43:17 10° NE
Cosmos 2227 Rocket 4.5 18:34:58 10° WSW 18:39:30 24° WNW 18:44:03 10° N
FengYun 1-2 T 4.4 18:38:56 10° SE 18:44:10 47° ENE 18:49:25 10° N
Cosmos 1782 Rocket 3.7 18:40:07 10° S 18:44:25 53° E 18:48:44 10° NNE
Okean 3 4.0 18:44:31 10° NNW 18:48:38 62° W 18:52:46 10° S
SL-16 R/B 2.7 18:44:19 10° NNW 18:49:56 66° WSW 18:55:30 10° S
Envisat 4.0 18:46:38 10° ESE 18:50:39 24° ENE 18:54:38 10° NNE
FREGAT/IRIS 3.1 18:49:32 10° SE 18:52:16 35° ENE 18:55:02 10° N
H-2A R/B 2.7 18:50:21 10° SSE 18:54:13 68° ENE 18:58:05 10° N
HJ-1C 4.3 18:51:36 10° SE 18:54:33 28° ENE 18:57:32 10° NNE
Tiangong 2 4.1 18:53:41 10° WSW 18:55:14 13° SW 18:56:46 10° S
Cosmos 494 Rocket 4.2 18:50:39 10° S 18:55:37 47° ESE 19:00:34 10° NNE
COSMO-SKYMED 1 4.3 18:53:05 10° N 18:57:02 35° WNW 19:00:59 10° SW
CENTAUR R/B 3.7 18:52:27 10° WSW 18:58:07 43° NW 19:04:34 10° NNE
CZ-4C R/B 3.8 18:54:42 10° NNW 19:00:46 28° NE 19:05:22 17° E
OAO 2 Rocket 3.4 18:55:55 10° W 19:00:52 69° S 19:04:29 18° ESE
Sich 1 Rocket 4.1 18:59:45 10° SSW 19:04:12 65° W 19:08:39 10° N
Cosmos 1110 Rocket 4.2 19:03:11 10° N 19:08:20 48° ENE 19:13:26 10° SE
Cosmos 921 Rocket 3.3 19:04:08 10° NNW 19:08:37 73° WSW 19:13:02 10° S
USA 186 4.2 19:10:53 11° NNE 19:10:53 11° NNE 19:11:07 10° NNE
Cosmos 1603 3.7 19:03:31 10° NNW 19:09:04 57° ENE 19:14:33 10° SE
Tsikada Rocket 4.0 19:03:11 10° S 19:09:33 74° E 19:15:57 10° N
SJ-6B 3.0 19:09:14 10° SSE 19:12:51 45° ENE 19:16:33 10° N
Okean 2 Rocket 2.9 19:09:22 10° S 19:13:42 69° E 19:18:06 10° NNE
Meteor 1-4 Rocket 2.4 19:10:23 10° S 19:13:50 65° E 19:17:24 10° NNE
COSMOS 2455 2.8 19:08:24 10° SSW 19:14:20 67° ESE 19:20:19 10° NNE
USA 32 4.4 19:10:57 10° SSW 19:16:09 68° W 19:21:22 10° N
Cosmos 2263 Rocket 2.4 19:10:59 10° S 19:16:16 47° ESE 19:21:36 10° NE
Thor Agena Rocket 3.6 19:11:26 10° NNE 19:16:23 52° E 19:21:17 10° S
BREEZE-M DEB (TANK) 3.0 19:15:44 10° SW 19:18:31 73° SE 19:25:52 10° NE
CZ-2D R/B 3.5 19:16:59 10° SSE 19:20:43 47° ENE 19:24:30 10° N
Iridium 4 Rocket 3.9 19:16:19 10° N 19:20:50 53° W 19:25:01 10° SSW
Cosmos 2151 Rocket 3.8 19:19:21 10° SSE 19:23:36 44° E 19:27:51 10° NNE
Meteor 1-13 Rocket 4.0 19:23:06 10° N 19:28:38 73° E 19:34:08 10° SSE
Cosmos 1331 Rocket 3.9 19:31:58 10° NNW 19:37:18 80° ENE 19:42:12 12° SSE
Cosmos 2346 Rocket 4.5 19:33:12 10° S 19:39:24 84° W 19:45:35 10° N
ATLAS CENTAUR R/B 2.1 19:35:26 10° NNW 19:39:07 37° NE 19:39:07 37° NE
Spot 2 Rocket 4.1 19:40:29 34° ENE 19:40:29 34° ENE 19:44:37 10° N
Geosat 4.2 19:43:52 44° ESE 19:44:00 44° ESE 19:48:46 10° S
Cosmos 2279 Rocket 4.4 19:38:56 10° N 19:44:42 38° ENE 19:44:58 38° E
ARGOS Delta rocket 4.1 19:46:47 10° N 19:51:28 65° WNW 19:55:54 10° SSW
Meteor 1-5 Rocket 4.2 19:46:38 10° S 19:52:31 84° E 19:58:31 10° N
Meteor 2-4 Rocket 3.7 19:47:37 10° N 19:53:22 82° W 19:58:55 10° S
Resurs 1-3 4.0 19:54:18 47° NNE 19:54:18 47° NNE 19:57:43 10° N
Alouette 2 Rocket 4.2 19:53:26 10° SSW 19:56:53 44° WNW 20:00:30 10° N
GPS 2-05 Rocket1 4.1 19:53:56 10° WSW 19:55:55 34° WSW 19:55:55 34° WSW
Cosmos 2251 Rocket 3.6 19:54:25 10° SSW 19:59:37 73° WNW 20:04:53 10° NNE
Cosmos 1536 3.3 19:57:29 10° SSW 20:01:27 58° W 20:05:29 10° N
SeaSat 1 2.3 20:01:41 70° E 20:01:54 71° ENE 20:06:49 10° NNW
Lacrosse 5 rocket 2.4 20:00:47 10° SW 20:02:54 33° SW 20:02:54 33° SW
Cosmos 1184 Rocket 4.4 20:03:10 10° NNW 20:05:46 34° WNW 20:05:46 34° WNW
Cosmos 1634 Rocket 4.0 20:01:27 10° N 20:07:37 81° W 20:13:47 10° S
Cosmos 1302 Rocket 3.8 20:04:25 10° NNW 20:09:38 86° ENE 20:09:51 82° SE
Cosmos 1943 3.2 20:06:44 10° NNW 20:12:25 77° WSW 20:14:05 47° S
Resurs 01 Rocket 2.3 20:16:18 49° NNW 20:16:18 49° NNW 20:19:36 10° NNW
USA 215 3.3 20:14:51 32° NE 20:18:06 74° NW 20:24:37 10° SW
Cosmos 1536 Rocket 4.4 20:18:56 10° NNW 20:22:22 46° NW 20:22:22 46° NW
BREEZE-M DEB (TANK) 4.3 20:10:27 10° SW 20:26:25 65° SE 20:26:32 65° SE
Envisat 4.4 20:24:47 10° SSW 20:29:26 36° W 20:34:06 10° NNW
USA 267 4.3 20:51:14 34° N 20:51:14 34° N 20:55:46 10° NNW
CZ-4C R/B 3.0 20:42:33 10° NW 20:49:57 73° WSW 20:50:38 69° SSW
Cosmos 2263 Rocket 4.3 20:56:06 10° WSW 21:00:25 23° WNW 21:04:47 10° N
CZ-3C R/B 4.3 21:26:44 10° SW 22:17:21 - ESE 21:29:40 27° SSW
